Weather in Bursa

Turkey     40°11′04″N   29°04′26″E
temp.,
°C
wind,
m/s
gust,
m/s
humid.,
%
clouds,
%
prec.,
mm/h
press.,
hPa
HPBL,
m
29 june, wed
wed2900:00+20wsw22635 0.0 101335
03:00+18sw23828 0.0 101376
06:00+17ssw11875 0.0 101330
09:00+22n12658 0.1 1013753
12:00+27n45451 0.0 10121695
15:00+28nnw654187 0.0 10112193
18:00+26n76431 0.1 10111499
21:00+21nne22641 0.1 101175
30 june, thu
thu3000:00+19ese11740 0.0 101241
03:00+17se11800 0.0 101223
06:00+17se11820 0.0 101225
09:00+22n22630 0.0 1012781
12:00+28n45430 0.0 10121609
15:00+30nne66380 0.0 10101970
18:00+28nne66420 0.0 10101420
21:00+22ne23660 0.0 101190
1 july, fri
fri100:00+20e12750 0.0 101247
03:00+18se11800 0.0 101215
06:00+18ese11790 0.0 101232
09:00+24nne23570 0.0 1013706
12:00+30nne57370 0.0 10121739
15:00+32ne78320 0.0 10122093
18:00+30ne78340 0.0 10121638
21:00+23ene36590 0.0 1012203
2 july, sat
sat200:00+20e23700 0.0 101484
03:00+19e22760 0.0 101454
06:00+18e12790 0.0 101454
09:00+25ne34540 0.0 1015793
12:00+30ne67360 0.0 10141806
15:00+31ne88310 0.0 10132015
18:00+29ne89370 0.0 10131404
21:00+22ene47550 0.0 1015297
3 july, sun
sun300:00+19e35670 0.0 1016152
03:00+17ene23740 0.0 101692
06:00+16e23730 0.0 101676
09:00+23ne45470 0.0 1015789
12:00+29ne78230 0.0 10141515
15:00+30ne88210 0.0 10131632
18:00+27ne78280 0.0 10131154
21:00+20ene35490 0.0 1014113